Flag for Czech Republic Weather past 2 weeks in Brno, Czech Republic

Now
56 °F

Partly sunny.


Feels Like: 55 °F
Forecast: 40 / 57 °F
Wind: 6 mph from West

Location: Brno / Turany

Current Time: Sep 22, 2014 at 6:59:41 PM

Latest Report: Sep 22, 2014 at 6:00 PM


Visibility: 25 mi

Pressure: 29.86 "Hg

Humidity: 60%

Dew point: 42 °F

Location of BrnoLocation

Historic Weather in Brno — Graph

°F

Brno temperature yesterday

Maximum temperature yesterday: 73 °F (at 2:00 PM)
Minimum temperature yesterday: 57 °F (at 6:00 AM)
Average temperature yesterday: 64 °F

Past Weeks' High & Low Weather Summary

 TemperatureHumidityPressure
High77 °F (Sep 8, 4:00 PM)98% (Sep 15, 3:00 AM)30.11 "Hg (Sep 15, 3:00 AM)
Low52 °F (Sep 17, 6:00 AM)46% (Sep 8, 5:00 PM)29.76 "Hg (Sep 12, 7:00 AM)
Average62 °F81%29.99 "Hg
* Reported Sep 7 5:00 PM — Sep 22 5:00 PM, Brno, Weather by CustomWeather, © 2014

Note: Actual official high and low records may vary slightly from our data, if they occured in-between our weather recording intervals... More about our weather records

Advertising

Brno weather history for previous 24 hours

 ConditionsComfort  
Time TempWeatherWind HumidityBarometerVisibility
5:00 PM
Sep 22
58 °FOvercast.6 mph56%29.85 "Hg19 mi
4:00 PM61 °FPartly sunny.7 mph46%29.83 "Hg19 mi
3:00 PM61 °FOvercast.7 mph52%29.83 "Hg19 mi
2:00 PM59 °FOvercast.9 mph55%29.85 "Hg19 mi
1:00 PM59 °FPartly sunny.7 mph57%29.86 "Hg16 mi
12:00 PM59 °FPartly sunny.9 mph57%29.87 "Hg16 mi
11:00 AM57 °FPartly sunny.6 mph69%29.88 "Hg16 mi
10:00 AM56 °FOvercast.6 mph70%29.89 "Hg16 mi
9:00 AM56 °FPartly sunny.5 mph73%29.88 "Hg16 mi
8:00 AM54 °FPartly sunny.6 mph78%29.86 "Hg16 mi
7:00 AM55 °FPartly sunny.6 mph83%29.85 "Hg19 mi
6:00 AM55 °FOvercast.7 mph83%29.83 "Hg19 mi
5:00 AM55 °FLight rain. Overcast.7 mph85%29.81 "Hg19 mi
4:00 AM56 °FLight rain. Overcast.8 mph82%29.80 "Hg9 mi
3:00 AM60 °FLight rain. Overcast.3 mph94%29.78 "Hg9 mi
2:00 AM60 °FLight rain. Overcast.2 mph93%29.78 "Hg6 mi
1:00 AM61 °FRain. Low clouds.2 mph95%29.79 "Hg3 mi
12:00 AM60 °FLight rain. Overcast.2 mph95%29.80 "Hg19 mi
11:00 PM
Sep 21
60 °FOvercast.2 mph95%29.81 "Hg19 mi
10:00 PM61 °FLight rain. Overcast.1 mph93%29.81 "Hg19 mi
9:00 PM62 °FLight rain. Overcast.2 mph92%29.83 "Hg6 mi
8:00 PM63 °FPassing clouds.1 mph86%29.82 "Hg22 mi
7:00 PM62 °FPassing clouds.1 mph91%29.82 "Hg22 mi
6:00 PM65 °FPartly sunny.2 mph82%29.81 "Hg16 mi
Weather by CustomWeather, © 2014

See weather overviewHow to use our weather pages